Tracking 35237 objects as of 5-Sep-2026
HD Live streaming from Space Station
objects crossing your sky now

STARLINK-5749

Track STARLINK-5749 now!
10-day predictions
STARLINK-5749 is classified as:


NORAD ID: 55569
Int'l Code: 2023-020A
Launch date: February 12, 2023
Source: United States (US)
Launch site: AIR FORCE EASTERN TEST RANGE (AFETR)
Your satellite tracking list
Your tracking list is empty




NASA's NSSDC Master Catalog

Two Line Element Set (TLE):
1 55569U 23020A   26247.80835256  .00000343  00000-0  22011-4 0  9995
2 55569  43.0009  77.2960 0001826 251.0443 109.0211 15.27574956197333
Source of the keplerian elements: AFSPC